Wind_Speed
18 17 16 15 14 13 13 12 12 12 12 11 12 11 11 11 10 9 9 9 8 7 7 6 6 5 5 6 6 5 5 5 6 6 6 6 6 6 6 6 7 7 7
20 19 17 16 15 14 14 14 13 13 13 12 12 12 12 12 11 11 10 10 9 9 8 8 7 7 7 7 7 7 7 7 7 7 8 8 8 8 9 9 9 9 9
21 20 19 18 17 16 15 15 14 14 13 13 13 13 13 13 12 12 12 11 11 11 10 9 9 8 8 8 8 8 8 8 9 9 9 9 10 10 10 11 11 11 11
22 21 20 19 18 17 16 16 15 15 15 14 14 14 13 13 13 13 13 13 12 12 12 11 10 10 10 10 10 10 10 10 10 11 11 11 12 12 12 12 12 12 12
23 22 21 20 19 18 17 17 17 16 16 15 15 15 14 14 14 14 13 13 13 13 13 13 12 12 12 12 11 11 11 11 11 12 12 13 13 13 14 14 14 14 13
23 23 22 21 20 19 18 17 17 17 16 16 15 15 15 15 15 15 14 14 14 14 14 14 13 13 13 13 13 13 13 13 14 14 14 14 14 15 15 15 15 15 15
24 23 23 22 21 19 19 19 18 17 17 17 17 16 16 16 16 16 15 15 15 15 15 15 15 15 15 15 15 15 15 15 15 15 16 16 16 16 16 16 16 16 17
25 23 22 23 22 21 21 20 20 19 19 19 18 18 17 17 17 16 16 16 16 16 16 17 17 17 17 17 17 17 17 17 17 17 17 17 17 17 17 17 17 18 18
25 25 24 23 22 22 22 22 21 21 21 21 20 20 19 18 18 17 18 18 18 18 18 18 18 19 19 19 19 19 19 19 19 19 19 18 18 18 18 18 19 19 19
26 25 25 24 23 23 23 23 22 22 22 22 21 21 21 20 19 19 19 19 19 19 20 19 19 20 21 21 21 21 21 21 21 20 20 20 20 20 20 20 20 20 20
27 26 26 25 25 25 24 24 24 23 23 23 23 23 23 22 21 21 21 21 21 21 21 21 21 21 21 22 22 22 23 23 23 22 22 21 22 21 22 22 22 22 22
28 27 27 26 25 25 25 25 24 24 24 23 23 23 23 23 22 22 21 22 22 22 22 22 22 22 22 22 23 23 24 24 24 24 24 24 24 24 24 24 24 24 24
28 27 28 27 26 26 26 25 24 24 25 24 24 24 24 23 23 22 22 22 22 22 23 23 22 23 23 23 24 24 25 26 26 25 25 25 26 26 26 26 27 27 27
29 28 29 28 27 27 27 26 26 26 26 25 25 25 25 25 24 24 23 22 22 23 23 24 24 24 24 25 25 26 26 27 27 28 28 28 28 28 28 28 28 28 29
30 30 29 29 28 27 27 27 27 28 27 27 27 27 26 26 26 26 25 25 24 24 24 25 25 25 26 26 26 26 27 28 29 29 29 29 30 30 30 30 30 30 30
30 30 30 30 30 30 27 27 28 28 28 28 28 28 28 28 28 28 27 27 26 26 26 26 27 27 27 27 27 27 28 28 29 30 30 31 30 31 32 32 32 32 32
29 30 31 31 31 31 30 29 28 29 29 30 29 29 28 29 29 30 29 28 28 28 28 28 28 29 29 29 29 29 29 29 30 31 31 32 32 32 33 33 33 34 34
29 30 31 31 32 32 31 30 30 29 29 29 30 30 29 29 30 30 31 30 30 30 30 30 30 30 31 31 31 31 31 31 32 32 33 33 34 34 34 34 34 34 35
30 30 31 31 31 31 31 29 30 30 31 30 31 31 31 31 31 32 32 32 32 32 33 33 33 32 32 32 33 33 33 34 34 34 34 35 36 36 37 37 36 36 36
29 29 29 30 30 30 30 30 29 30 31 30 31 32 31 31 32 33 34 34 34 34 34 34 34 34 34 34 35 35 36 36 36 37 37 37 38 39 40 40 39 39 38
28 29 29 28 29 30 30 30 30 30 30 30 31 32 32 32 32 33 33 34 35 35 35 35 35 36 36 37 37 38 38 38 38 38 39 39 40 40 41 42 41 41 41
29 29 28 29 29 29 30 30 30 30 30 31 32 34 34 34 34 34 34 34 35 36 36 37 37 38 38 39 40 40 40 40 41 41 41 41 41 42 42 42 42 43 43
28 29 28 28 28 29 30 30 30 31 31 32 33 34 36 36 35 36 36 36 36 36 36 37 38 38 39 40 41 42 42 42 42 42 43 43 43 43 44 44 44 44 44
28 29 29 29 29 30 31 31 31 32 33 33 33 34 35 36 37 37 37 38 38 39 39 39 39 39 40 41 42 42 43 43 43 43 43 44 44 45 45 45 45 45 45
29 29 30 31 31 31 32 32 32 32 33 34 34 35 35 36 37 37 38 39 39 39 41 41 42 42 42 42 42 43 43 44 44 44 44 44 44 44 45 46 46 46 46
30 31 31 31 32 32 32 33 34 34 34 35 35 36 36 37 38 39 39 40 40 41 42 43 44 44 43 43 43 43 44 45 45 45 44 44 44 44 45 46 47 47 47
Wind_Direction
232 231 230 228 228 226 226 226 226 228 226 225 225 226 227 228 228 227 226 225 226 228 232 237 237 238 239 241 245 247 247 247 249 253 256 259 264 271 278 282 285 288 294
231 230 230 229 228 227 227 227 227 230 229 230 230 231 231 232 233 233 231 230 231 232 235 239 241 242 242 242 245 250 254 255 255 257 260 264 268 271 275 279 282 284 287
232 231 230 230 229 228 228 228 228 231 233 235 236 236 233 232 234 236 235 235 236 237 239 240 243 245 246 247 250 253 256 259 260 262 265 267 268 271 273 276 279 282 283
231 231 232 232 230 230 231 232 233 234 236 239 239 238 237 235 236 237 238 238 240 241 242 242 243 246 249 253 254 255 258 260 263 265 267 269 270 271 272 274 276 278 279
230 230 231 233 231 231 232 235 237 237 238 240 238 238 238 237 238 239 239 240 241 243 244 244 246 248 251 254 256 258 260 262 265 268 270 271 271 272 272 273 274 274 276
230 230 230 232 232 232 233 235 237 238 238 238 238 239 239 239 238 240 242 243 243 244 246 247 248 251 252 254 257 260 261 263 266 268 270 272 273 272 272 272 272 272 273
229 231 231 232 232 232 233 235 236 237 238 238 238 239 239 238 239 241 242 245 247 248 249 250 252 253 255 256 258 260 262 264 266 269 270 272 273 273 273 272 271 271 272
229 230 232 233 233 233 233 234 236 238 239 239 239 240 241 240 241 242 243 246 250 252 253 254 255 256 257 259 260 262 265 266 268 268 270 271 271 271 272 272 271 272 272
229 230 232 232 233 234 236 237 237 238 239 240 241 242 242 242 242 244 246 248 251 253 255 256 258 260 261 262 263 264 266 268 269 270 270 271 271 270 270 270 271 272 273
229 230 233 234 235 236 238 238 238 238 239 241 242 243 243 243 245 247 249 250 252 254 256 258 260 262 263 264 264 265 266 268 269 269 269 270 271 270 270 270 271 272 273
228 231 234 234 236 239 239 239 240 240 240 241 242 243 244 244 246 249 251 253 254 255 257 260 261 263 264 265 266 266 267 267 268 268 268 268 269 269 270 270 271 273 274
229 232 233 234 234 237 239 238 239 240 242 242 242 243 244 245 246 249 252 254 255 256 258 260 262 264 265 266 267 267 267 267 268 268 267 267 267 268 269 270 271 272 273
230 231 233 233 233 236 239 238 240 241 243 242 242 244 245 247 248 250 253 254 255 257 258 260 262 265 267 269 269 268 268 267 267 267 267 267 268 268 269 270 271 271 271
232 232 233 235 236 237 238 240 241 243 243 242 244 246 247 247 249 251 253 255 256 257 259 262 264 266 268 270 271 271 270 269 268 268 268 268 269 269 270 270 270 271 271
231 232 234 237 238 240 239 241 243 244 245 246 247 248 248 248 249 251 253 255 257 258 261 263 266 267 269 270 271 272 271 271 270 269 268 268 269 269 270 270 271 271 271
232 235 236 239 241 241 242 243 244 245 247 248 249 250 249 250 251 252 253 255 258 259 261 264 265 267 269 271 272 273 273 273 273 271 269 268 269 270 270 270 270 269 269
234 237 239 241 243 244 248 247 247 247 247 248 249 250 250 251 252 253 254 256 258 261 262 264 266 268 269 270 271 272 273 273 272 271 270 269 269 270 271 270 270 269 269
237 239 241 243 245 249 250 249 248 249 249 250 249 249 251 251 252 254 255 257 259 261 263 265 267 268 268 270 272 272 273 274 273 272 271 270 270 270 270 270 270 269 269
239 242 244 245 246 246 247 249 249 249 250 251 251 251 253 253 254 254 256 257 259 262 264 266 267 267 268 270 272 272 272 273 273 273 273 271 270 270 270 271 271 270 270
240 243 245 247 247 247 248 251 251 251 252 252 252 254 254 255 256 256 257 259 261 263 265 266 267 268 268 270 271 272 272 273 273 273 273 273 271 269 270 271 272 271 270
240 242 244 247 249 251 252 253 254 253 254 254 254 255 256 257 258 260 260 261 262 263 265 267 268 269 269 270 271 272 273 273 274 274 274 273 272 271 270 271 271 272 271
241 244 247 249 251 253 254 255 256 257 256 257 257 258 259 260 261 262 263 263 264 265 266 267 269 270 269 270 272 273 273 274 274 274 274 274 273 273 271 271 270 270 270
245 247 251 253 252 253 255 257 257 259 260 260 260 261 262 262 264 264 265 265 266 267 268 269 270 271 272 273 274 274 275 274 274 274 274 274 273 272 272 271 271 270 270
247 249 250 254 256 257 257 257 258 260 261 262 263 264 264 264 265 266 266 266 267 268 270 271 271 273 274 274 275 276 276 275 274 273 273 272 272 271 271 271 271 271 271
249 250 252 255 257 258 259 259 260 261 262 263 264 265 265 265 266 267 267 267 268 269 271 272 272 274 275 276 276 277 277 276 276 274 273 273 272 272 271 270 270 270 271
251 252 254 256 258 259 259 260 261 262 263 264 265 266 266 267 267 268 269 269 270 271 272 273 274 275 275 276 276 277 276 276 277 276 275 274 273 272 272 271 270 270 270
Height
5852 5854 5855 5856 5857 5858 5859 5859 5860 5861 5861 5862 5863 5863 5864 5864 5865 5865 5865 5866 5866 5867 5867 5867 5868 5868 5868 5869 5869 5869 5869 5869 5869 5869 5870 5869 5869 5869 5869 5869 5868 5868 5868
5849 5850 5852 5853 5854 5855 5856 5857 5857 5858 5859 5860 5860 5861 5862 5862 5863 5863 5864 5864 5864 5865 5865 5866 5866 5866 5867 5867 5867 5868 5868 5868 5868 5868 5868 5868 5868 5868 5868 5867 5867 5867 5866
5845 5847 5848 5849 5851 5852 5853 5854 5855 5856 5856 5857 5858 5859 5859 5860 5860 5861 5861 5862 5862 5863 5863 5864 5864 5865 5865 5865 5865 5866 5866 5866 5866 5866 5866 5866 5866 5866 5866 5865 5865 5865 5864
5841 5843 5844 5846 5847 5849 5850 5851 5852 5853 5854 5854 5855 5856 5857 5857 5858 5858 5859 5859 5860 5860 5861 5862 5862 5862 5863 5863 5863 5864 5864 5864 5864 5864 5864 5864 5864 5864 5864 5863 5863 5863 5862
5836 5838 5840 5842 5843 5845 5846 5847 5849 5850 5851 5851 5852 5853 5854 5854 5855 5856 5856 5857 5857 5858 5858 5859 5859 5860 5860 5861 5861 5861 5861 5861 5861 5861 5861 5861 5861 5861 5861 5861 5861 5860 5860
5832 5834 5836 5838 5840 5841 5843 5844 5845 5846 5847 5848 5849 5850 5851 5852 5852 5853 5853 5854 5854 5855 5856 5856 5857 5857 5858 5858 5858 5858 5859 5859 5859 5859 5859 5858 5858 5858 5858 5858 5858 5857 5857
5827 5829 5832 5834 5836 5837 5839 5840 5841 5842 5844 5845 5846 5847 5847 5848 5849 5850 5850 5851 5851 5852 5852 5853 5854 5854 5854 5855 5855 5855 5855 5855 5855 5855 5855 5855 5855 5855 5855 5855 5855 5854 5854
5823 5825 5828 5830 5831 5833 5835 5836 5837 5838 5840 5841 5842 5843 5844 5845 5846 5846 5847 5848 5848 5848 5849 5850 5850 5851 5851 5851 5851 5852 5852 5852 5852 5852 5852 5852 5852 5852 5852 5851 5851 5851 5851
5818 5821 5823 5825 5827 5828 5830 5831 5833 5834 5836 5837 5838 5839 5840 5841 5842 5843 5843 5844 5844 5845 5845 5846 5846 5847 5847 5847 5848 5848 5848 5848 5848 5848 5848 5848 5848 5848 5848 5848 5847 5847 5847
5813 5816 5818 5821 5822 5824 5825 5826 5828 5829 5831 5832 5834 5835 5836 5837 5838 5839 5839 5840 5840 5841 5841 5842 5842 5842 5843 5843 5843 5843 5844 5844 5844 5844 5844 5844 5844 5844 5844 5844 5844 5843 5843
5808 5810 5813 5816 5817 5818 5820 5821 5823 5824 5826 5828 5829 5830 5831 5832 5833 5834 5835 5835 5836 5836 5837 5837 5838 5838 5838 5838 5839 5839 5839 5839 5839 5839 5839 5839 5839 5839 5839 5839 5839 5839 5839
5802 5805 5808 5810 5811 5813 5815 5816 5818 5819 5821 5822 5823 5825 5826 5827 5828 5829 5830 5830 5831 5831 5832 5832 5833 5833 5833 5833 5833 5833 5834 5834 5834 5834 5834 5834 5834 5834 5834 5834 5834 5834 5834
5797 5799 5802 5804 5806 5807 5809 5811 5813 5814 5816 5817 5818 5819 5820 5822 5823 5824 5825 5825 5826 5826 5827 5827 5828 5828 5828 5828 5828 5828 5828 5828 5828 5828 5829 5829 5829 5829 5829 5829 5829 5829 5829
5791 5794 5797 5799 5800 5802 5804 5806 5808 5809 5811 5812 5813 5814 5815 5816 5818 5819 5819 5820 5821 5821 5822 5822 5822 5823 5823 5823 5823 5823 5822 5822 5822 5823 5823 5823 5823 5823 5823 5823 5823 5823 5823
5786 5788 5791 5793 5795 5797 5798 5800 5802 5804 5805 5806 5808 5809 5810 5811 5812 5813 5814 5815 5816 5816 5817 5817 5817 5817 5817 5817 5817 5817 5817 5816 5816 5816 5817 5817 5817 5817 5817 5817 5817 5817 5816
5780 5783 5785 5788 5789 5791 5793 5795 5797 5798 5799 5800 5802 5803 5804 5805 5806 5808 5809 5809 5810 5811 5811 5811 5811 5812 5812 5812 5812 5811 5811 5810 5810 5810 5810 5810 5810 5810 5810 5810 5810 5810 5810
5775 5777 5780 5782 5784 5785 5787 5788 5790 5792 5793 5794 5795 5797 5798 5799 5800 5801 5802 5803 5804 5804 5805 5805 5805 5805 5806 5805 5805 5805 5804 5804 5804 5803 5803 5803 5803 5802 5802 5802 5802 5802 5802
5770 5772 5774 5776 5778 5779 5781 5782 5784 5785 5786 5788 5789 5790 5791 5792 5794 5795 5796 5797 5797 5798 5798 5799 5799 5799 5799 5799 5798 5798 5797 5797 5796 5796 5795 5795 5795 5795 5795 5794 5795 5795 5795
5765 5767 5769 5770 5772 5773 5774 5775 5777 5778 5779 5781 5782 5783 5784 5785 5787 5788 5789 5790 5790 5791 5791 5792 5792 5792 5792 5791 5791 5790 5790 5789 5789 5788 5788 5787 5787 5787 5786 5786 5786 5786 5786
5760 5761 5763 5764 5766 5767 5767 5769 5770 5771 5772 5774 5775 5776 5777 5778 5780 5780 5781 5782 5783 5783 5784 5784 5784 5784 5784 5784 5783 5782 5782 5781 5781 5780 5779 5779 5778 5778 5777 5777 5777 5777 5777
5754 5756 5757 5758 5760 5761 5762 5763 5764 5765 5766 5768 5769 5769 5770 5771 5772 5773 5773 5774 5775 5775 5776 5776 5776 5776 5775 5775 5774 5774 5774 5773 5772 5771 5770 5769 5769 5768 5768 5768 5768 5767 5767
5749 5751 5752 5753 5754 5755 5756 5757 5758 5759 5760 5761 5762 5762 5763 5764 5764 5765 5766 5766 5767 5767 5767 5767 5767 5767 5767 5766 5765 5765 5764 5764 5763 5762 5761 5760 5759 5758 5758 5758 5757 5757 5757
5743 5745 5745 5746 5748 5749 5750 5751 5752 5752 5753 5754 5754 5755 5755 5756 5756 5757 5757 5758 5758 5758 5758 5758 5758 5757 5757 5756 5755 5755 5754 5754 5753 5752 5751 5749 5748 5748 5747 5747 5747 5746 5746
5737 5738 5740 5740 5741 5743 5743 5744 5745 5745 5746 5746 5747 5747 5748 5748 5748 5749 5749 5749 5749 5749 5749 5749 5748 5748 5747 5746 5745 5744 5743 5742 5742 5742 5741 5739 5738 5737 5736 5735 5735 5735 5735
5731 5732 5733 5734 5735 5735 5736 5737 5738 5738 5738 5739 5739 5739 5740 5740 5740 5740 5740 5740 5740 5740 5740 5739 5738 5737 5737 5736 5735 5734 5733 5731 5730 5730 5730 5728 5727 5726 5725 5724 5723 5723 5723
5724 5725 5726 5727 5728 5728 5729 5729 5730 5730 5730 5731 5731 5731 5731 5731 5731 5731 5731 5731 5730 5730 5730 5729 5728 5727 5726 5725 5724 5723 5722 5721 5719 5718 5717 5716 5715 5715 5714 5713 5712 5711 5711